User: anonymous
Location: Arrakis Observatory
(44.1122°N, 95.7153°W)
Time: 06:16:06
(UTC-05:00)
Language:

Iridium 35 - Orbit

View from above orbital plane
View from above orbital plane
View from above satellite
View from above satellite

Ground track
Ground track

The orbit data is extracted from the following two-line orbital elements,

1 24966U 97056B   14243.49153443  .00000232  00000-0  75729-4 0  9644
2 24966 086.3978 025.3360 0002180 110.5762 249.5668 14.34221199886235
Epoch (UTC): 31 August 2014 11:47:48
Eccentricity: 0.0002180
inclination: 86.3978°
perigee height: 776 km
apogee height: 779 km
right ascension of ascending node: 25.3360°
argument of perigee: 110.5762°
revolutions per day: 14.34221199
mean anomaly at epoch: 249.5668°
orbit number at epoch: 88623

The dashed part of the orbit path shows where the satellite is in the earth's shadow,  

DLR